Regional Weather Roundup
Issued by NWS

Home | Current Version | Previous Version | Text Only | Print | Product List | Glossary On
Versions: 1 2 3 4 5 6 7 8 9 10 11 12 13 14 15 16 17 18 19 20 21 22 23 24 25 26 27 28 29 30 31 32 33 34 35 36 37 38 39 40 41 42 43 44 45 46 47 48 49 50
000
ASCA42 TJSJ 180411
RWRPR
PUERTO RICO/U.S. VIRGIN ISLANDS HOURLY WEATHER ROUNDUP
NATIONAL WEATHER SERVICE SAN JUAN PR
1200 AM AST THU DEC 18 2014

PRZ001-004-180500-
PUERTO RICO

CITY           SKY/WX    TMP DP  RH WIND       PRES   REMARKS
SAN JUAN LMM   PTCLDY    79  66  65 NE8       30.03F
PONCE          PTCLDY    70  66  88 CALM      30.01
AGUADILLA      MOCLDY    75  64  69 E10       30.06
CEIBA          PTCLDY    77  64  65 NE8       30.05F
$$

PRZ006-007-180500-
U.S. VIRGIN ISLANDS

CITY           SKY/WX    TMP DP  RH WIND       PRES   REMARKS
CHARLOTTE AMA  PTCLDY    77  64  65 E12       30.02
CHRISTIANSTED  CLEAR     73  68  83 N7        30.02
$$

HOURLY WEATHER ROUNDUP FOR THE NEWS MEDIA

CITY           SKY/WX    TMP DP  RH WIND       PRES   REMARKS
MIAMI          CLEAR     66  54  65 W5        30.16S
ORLANDO        PTCLDY    57  45  64 NW5       30.17S
NEW YORK       MOCLDY    44  28  53 W16       29.90S
NEWARK         MOCLDY    42  27  55 W16G23    29.91S
CHICAGO        CLOUDY    25  16  68 NW9       30.26R WCI  15
HARTFORD       CLOUDY    43  34  70 W13G23    29.74F
BOSTON         CLOUDY    42  34  73 W14G22    29.73S
DALLAS         CLOUDY    42  40  92 NE6       30.18R FOG
PHILADELPHIA   PTCLDY    40  21  46 NW21G29   29.99F WCI  30



USA.gov is the U.S. government's official web portal to all federal, state and local government web resources and services.